Previsão horária em Alot

Hoje, 21 Janeiro, Quinta-feira

Tempo Temperatura Precipitação Vento Pressão Humidade
00:00 +18°C° 0 mm 1 m/s 722 mmHg 38%
01:00 +18°C° 0 mm 1 m/s 722 mmHg 39%
02:00 +16°C° 0 mm 1 m/s 722 mmHg 40%
03:00 +16°C° 0 mm 1 m/s 721 mmHg 42%
04:00 +15°C° 0 mm 1 m/s 721 mmHg 43%
05:00 +15°C° 0 mm 1 m/s 721 mmHg 46%
06:00 +16°C° 0 mm 1 m/s 722 mmHg 45%
07:00 +18°C° 0 mm 1 m/s 722 mmHg 43%
08:00 +19°C° 0 mm 1 m/s 723 mmHg 41%
09:00 +21°C° 0 mm 1 m/s 723 mmHg 35%
10:00 +24°C° 0 mm 1 m/s 723 mmHg 29%
11:00 +26°C° 0 mm 1 m/s 724 mmHg 22%
12:00 +27°C° 0 mm 1 m/s 723 mmHg 19%
13:00 +28°C° 0 mm 1 m/s 722 mmHg 17%
14:00 +29°C° 0 mm 1 m/s 722 mmHg 14%
15:00 +29°C° 0 mm 1 m/s 721 mmHg 16%
16:00 +28°C° 0 mm 1 m/s 721 mmHg 18%
17:00 +27°C° 0 mm 2 m/s 721 mmHg 20%
18:00 +25°C° 0 mm 1 m/s 721 mmHg 21%
19:00 +23°C° 0 mm 1 m/s 722 mmHg 22%
20:00 +21°C° 0 mm 1 m/s 722 mmHg 23%
21:00 +21°C° 0 mm 1 m/s 722 mmHg 24%
22:00 +20°C° 0 mm 1 m/s 721 mmHg 25%
23:00 +19°C° 0 mm 2 m/s 721 mmHg 26%

Amanhã, 22 Janeiro, Sexta-feira

Tempo Temperatura Precipitação Vento Pressão Humidade
00:00 +19°C° 0 mm 1 m/s 721 mmHg 27%
01:00 +18°C° 0 mm 1 m/s 721 mmHg 28%
02:00 +18°C° 0 mm 1 m/s 721 mmHg 29%
03:00 +16°C° 0 mm 1 m/s 721 mmHg 30%
04:00 +16°C° 0 mm 1 m/s 721 mmHg 30%
05:00 +16°C° 0 mm 1 m/s 721 mmHg 31%
06:00 +18°C° 0 mm 1 m/s 721 mmHg 31%
07:00 +18°C° 0 mm 1 m/s 722 mmHg 31%
08:00 +18°C° 0 mm 2 m/s 723 mmHg 31%
09:00 +21°C° 0 mm 2 m/s 723 mmHg 27%
10:00 +25°C° 0 mm 2 m/s 723 mmHg 23%
11:00 +28°C° 0 mm 3 m/s 723 mmHg 19%
12:00 +29°C° 0 mm 3 m/s 723 mmHg 17%
13:00 +30°C° 0 mm 2 m/s 722 mmHg 16%
14:00 +31°C° 0 mm 2 m/s 721 mmHg 14%
15:00 +30°C° 0 mm 2 m/s 721 mmHg 16%
16:00 +29°C° 0 mm 2 m/s 720 mmHg 18%
17:00 +28°C° 0 mm 1 m/s 720 mmHg 20%
18:00 +26°C° 0 mm 1 m/s 720 mmHg 22%
19:00 +24°C° 0 mm 2 m/s 720 mmHg 24%
20:00 +23°C° 0 mm 2 m/s 721 mmHg 25%
21:00 +21°C° 0 mm 2 m/s 721 mmHg 27%
22:00 +20°C° 0 mm 2 m/s 721 mmHg 28%
23:00 +19°C° 0 mm 2 m/s 721 mmHg 30%

Depois de amanhã, 23 Janeiro, Sábado

Tempo Temperatura Precipitação Vento Pressão Humidade
00:00 +19°C° 0 mm 2 m/s 720 mmHg 30%
01:00 +18°C° 0 mm 2 m/s 720 mmHg 29%
02:00 +18°C° 0 mm 2 m/s 719 mmHg 29%
03:00 +18°C° 0 mm 2 m/s 719 mmHg 29%
04:00 +18°C° 0 mm 1 m/s 719 mmHg 30%
05:00 +18°C° 0 mm 1 m/s 719 mmHg 30%
06:00 +18°C° 0 mm 2 m/s 720 mmHg 31%
07:00 +18°C° 0 mm 2 m/s 720 mmHg 31%
08:00 +19°C° 0 mm 2 m/s 721 mmHg 31%
09:00 +22°C° 0 mm 3 m/s 721 mmHg 27%
10:00 +26°C° 0 mm 4 m/s 721 mmHg 22%
11:00 +30°C° 0 mm 4 m/s 722 mmHg 18%
12:00 +30°C° 0 mm 5 m/s 721 mmHg 17%
13:00 +32°C° 0 mm 5 m/s 720 mmHg 17%
14:00 +33°C° 0 mm 6 m/s 720 mmHg 16%
15:00 +32°C° 0 mm 5 m/s 719 mmHg 18%
16:00 +29°C° 0 mm 4 m/s 719 mmHg 21%
17:00 +28°C° 0 mm 4 m/s 718 mmHg 23%
18:00 +26°C° 0 mm 4 m/s 719 mmHg 26%
19:00 +24°C° 0 mm 3 m/s 719 mmHg 29%
20:00 +21°C° 0 mm 3 m/s 719 mmHg 32%
21:00 +20°C° 0 mm 3 m/s 719 mmHg 35%
22:00 +20°C° 0 mm 3 m/s 720 mmHg 38%
23:00 +19°C° 0 mm 3 m/s 720 mmHg 42%

24 Janeiro, Domingo

Tempo Temperatura Precipitação Vento Pressão Humidade
00:00 +19°C° 0 mm 3 m/s 719 mmHg 44%
01:00 +18°C° 0 mm 2 m/s 719 mmHg 46%
02:00 +17°C° 0 mm 2 m/s 719 mmHg 48%
03:00 +17°C° 0 mm 2 m/s 719 mmHg 52%
04:00 +16°C° 0 mm 2 m/s 719 mmHg 56%
05:00 +16°C° 0 mm 2 m/s 719 mmHg 60%
06:00 +16°C° 0 mm 2 m/s 720 mmHg 57%
07:00 +17°C° 0 mm 2 m/s 721 mmHg 54%
08:00 +17°C° 0 mm 2 m/s 721 mmHg 50%
09:00 +20°C° 0 mm 2 m/s 722 mmHg 41%
10:00 +22°C° 0 mm 3 m/s 722 mmHg 31%
11:00 +25°C° 0 mm 3 m/s 722 mmHg 22%
12:00 +26°C° 0 mm 3 m/s 722 mmHg 20%
13:00 +27°C° 0 mm 2 m/s 722 mmHg 18%
14:00 +28°C° 0 mm 2 m/s 721 mmHg 16%
15:00 +27°C° 0 mm 2 m/s 721 mmHg 17%
16:00 +26°C° 0 mm 3 m/s 721 mmHg 19%
17:00 +25°C° 0 mm 3 m/s 720 mmHg 20%
18:00 +22°C° 0 mm 3 m/s 721 mmHg 20%
19:00 +20°C° 0 mm 3 m/s 721 mmHg 21%
20:00 +18°C° 0 mm 4 m/s 722 mmHg 21%
21:00 +18°C° 0 mm 3 m/s 722 mmHg 21%
22:00 +17°C° 0 mm 3 m/s 722 mmHg 21%
23:00 +16°C° 0 mm 3 m/s 722 mmHg 21%

25 Janeiro, Segunda-feira

Tempo Temperatura Precipitação Vento Pressão Humidade
00:00 +14°C° 0 mm 3 m/s 722 mmHg 22%
01:00 +13°C° 0 mm 3 m/s 722 mmHg 23%
02:00 +12°C° 0 mm 3 m/s 721 mmHg 24%
03:00 +12°C° 0 mm 3 m/s 721 mmHg 26%
04:00 +11°C° 0 mm 3 m/s 721 mmHg 28%
05:00 +10°C° 0 mm 3 m/s 721 mmHg 29%
06:00 +11°C° 0 mm 3 m/s 722 mmHg 31%
07:00 +11°C° 0 mm 4 m/s 722 mmHg 32%
08:00 +12°C° 0 mm 4 m/s 723 mmHg 33%
09:00 +15°C° 0 mm 4 m/s 723 mmHg 28%
10:00 +19°C° 0 mm 4 m/s 724 mmHg 23%
11:00 +22°C° 0 mm 4 m/s 724 mmHg 19%
12:00 +24°C° 0 mm 3 m/s 723 mmHg 17%
13:00 +25°C° 0 mm 3 m/s 723 mmHg 16%
14:00 +26°C° 0 mm 2 m/s 722 mmHg 14%
15:00 +25°C° 0 mm 2 m/s 722 mmHg 16%
16:00 +25°C° 0 mm 2 m/s 721 mmHg 18%
17:00 +24°C° 0 mm 2 m/s 721 mmHg 19%
18:00 +21°C° 0 mm 2 m/s 721 mmHg 21%
19:00 +19°C° 0 mm 3 m/s 721 mmHg 23%
20:00 +17°C° 0 mm 3 m/s 722 mmHg 25%
21:00 +16°C° 0 mm 3 m/s 722 mmHg 26%
22:00 +16°C° 0 mm 3 m/s 722 mmHg 28%
23:00 +14°C° 0 mm 3 m/s 722 mmHg 30%

26 Janeiro, Terça-feira

Tempo Temperatura Precipitação Vento Pressão Humidade
00:00 +13°C° 0 mm 3 m/s 721 mmHg 31%
01:00 +13°C° 0 mm 3 m/s 721 mmHg 31%
02:00 +13°C° 0 mm 2 m/s 721 mmHg 32%
03:00 +13°C° 0 mm 2 m/s 721 mmHg 34%
04:00 +12°C° 0 mm 2 m/s 721 mmHg 35%
05:00 +12°C° 0 mm 2 m/s 721 mmHg 36%
06:00 +11°C° 0 mm 3 m/s 721 mmHg 35%
07:00 +12°C° 0 mm 3 m/s 722 mmHg 34%
08:00 +12°C° 0 mm 3 m/s 723 mmHg 34%
09:00 +16°C° 0 mm 3 m/s 723 mmHg 29%
10:00 +19°C° 0 mm 3 m/s 723 mmHg 23%
11:00 +22°C° 0 mm 3 m/s 723 mmHg 18%
12:00 +24°C° 0 mm 3 m/s 723 mmHg 17%
13:00 +25°C° 0 mm 2 m/s 722 mmHg 15%
14:00 +27°C° 0 mm 1 m/s 721 mmHg 14%
15:00 +26°C° 0 mm 2 m/s 721 mmHg 15%
16:00 +25°C° 0 mm 2 m/s 721 mmHg 17%
17:00 +24°C° 0 mm 2 m/s 720 mmHg 19%
18:00 +21°C° 0 mm 2 m/s 720 mmHg 20%
19:00 +19°C° 0 mm 3 m/s 721 mmHg 22%
20:00 +17°C° 0 mm 3 m/s 721 mmHg 24%
21:00 +16°C° 0 mm 3 m/s 721 mmHg 25%
22:00 +16°C° 0 mm 3 m/s 721 mmHg 26%
23:00 +14°C° 0 mm 3 m/s 721 mmHg 28%
Mostrar mais

Necessitamos do seu Consentimento

A Meteoprog e os seus Fornecedores de Serviços podem armazenar e aceder a dados pessoais como cookies, identificadores do dispositivo ou outras tecnologias semelhantes existentes no seu dispositivo e processar estes dados para personalizar conteúdos e anúncios, assim como funcionalidades nas redes sociais e análise de tráfego.

  • Armazenar e/ou aceder a informações no seu dispositivo

    Os cookies, identificadores do dispositivo ou outras informações podem ser armazenados ou acedidos no seu dispositivo, para os fins acima indicados.

  • Anúncios e conteúdos personalizados, medição de anúncios e conteúdos, dados sobre o público-alvo e desenvolvimento de produtos

    Os anúncios e os conteúdos podem ser personalizados com base num perfil. Podem ser adicionados dados adicionais para uma maior personalização dos anúncios e dos conteúdos. A eficácia dos anúncios e dos conteúdos pode ser medida. Podem ser obtidas informações sobre o público que visualizou os anúncios e os conteúdos. Estes dados podem ser usados para desenvolver ou melhorar sistemas, softwares ou a experiência do utilizador.

Ao clicar em "Eu concordo”, permitirá o uso de cookies, identificadores do dispositivo e web beacons mencionados ou outras tecnologias semelhantes. As configurações do navegador do seu dispositivo podem ser alteradas.

Para certos fins, podem ser invocados interesses legítimos ao invés de consentimento. Pode ler mais informação sobre este assunto na nossa Política de Privacidade e Cookies.